[[{"header":{"parameterUnit":"m.s-1","parameterCategory":1,"la1":30.2991,"la2":30.254,"lo1":-89.0895,"lo2":-89.0444,"dy":0.0017,"dx":0.0017,"nx":28,"ny":28,"refTime":"2024-12-17T09:00:00:Z","depth":0,"parameterNumber":2,"parameterNumberName":"U-component_of_WINDS"},"data":[0,0,0,0,0,0,0,0,0,0,0,0,0,0,0,0,0,0,0,0,0,0,0,0,0,0,0,0,0,0,0,0,0,0,0,0,0,0,0,0,0,0,0,0,0,0,0,0,0,0,0,0,0,0,0,0,0,0,0.7161,0.7161,0,0.7157,0.7157,0.7157,0.7141,0.714,0.714,0.714,0.7135,0.7135,0.7135,0,0,0,0,0,0,0,0,0,0,0,0,0,0.7157,0.7157,0.7161,0.7161,0.7161,0.7157,0.7157,0.7157,0.7141,0.714,0.714,0.714,0.7135,0.7135,0.7135,0,0,0,0,0,0,0,0,0,0,0,0,0,0.7156,0.7157,0.7161,0.7152,0.7152,0.7157,0.7157,0.7156,0.7141,0.714,0.714,0.7139,0.7135,0.7135,0.7135,0.7148,0,0,0.7136,0.7136,0,0,0,0,0,0,0,0,0.7156,0.7156,0.7154,0.7153,0.7152,0.7149,0.7153,0.7154,0.7141,0.7145,0.714,0.7139,0.714,0.714,0.714,0.7148,0.7148,0.7136,0.7137,0.7137,0.7137,0,0,0,0,0,0,0,0.7156,0.7156,0.7159,0.7154,0.7153,0.7149,0.7149,0.7153,0.7145,0.7145,0.7143,0.7143,0.7139,0.714,0.714,0.7147,0.7136,0.7137,0.7137,0.7137,0.7169,0.717,0,0,0,0,0,0,0.7157,0.7156,0.7159,0.7159,0.7153,0.715,0.7149,0.715,0.7145,0.7144,0.7144,0.7142,0.714,0.714,0.714,0.7156,0.7137,0.7137,0.7137,0.7168,0.7169,0.717,0,0,0,0,0,0,0.7157,0.7158,0.7159,0.7157,0.7157,0.7151,0.7152,0.715,0.7151,0.7145,0.7143,0.7146,0.7139,0.7139,0.7147,0.7156,0.7137,0.7137,0.7167,0.7168,0.7169,0.7188,0,0,0,0,0,0,0.7157,0.7158,0.7162,0.7158,0.7158,0.7166,0.7152,0.7151,0.7152,0.715,0.7146,0.7145,0.7139,0.7147,0.7147,0.7156,0.7138,0.7167,0.7168,0.7169,0.7187,0.7189,0.7192,0,0,0,0,0,0.7157,0.7166,0.7162,0.7162,0.7162,0.7166,0.7166,0.7159,0.7152,0.7157,0.7154,0.7145,0.7155,0.7147,0.7148,0.7157,0.7166,0.7168,0.7169,0.7185,0.7189,0.7192,0,0,0,0,0,0,0.717,0.7165,0.7161,0.7169,0.7168,0.7164,0.7169,0.7163,0.7164,0.7163,0.7154,0.7153,0.7163,0.716,0.7152,0.7171,0.7159,0.7161,0.7171,0.7175,0.7177,0.7178,0.7138,0,0,0,0,0,0.7175,0.7178,0.7174,0.7181,0.7181,0.7176,0.7177,0.7172,0.7171,0.7171,0.7167,0.7167,0.717,0.7172,0.7175,0.7187,0.7187,0.7193,0.7196,0.7198,0.72,0.7209,0.7212,0.7175,0.7175,0.7175,0,0,0.7183,0.718,0.7183,0.7184,0.7183,0.7188,0.7175,0.718,0.7184,0.7171,0.7179,0.7177,0.7176,0.7187,0.7191,0.7185,0.7211,0.72,0.7202,0.7202,0.7211,0.7214,0.7217,0.7176,0.7176,0.7175,0,0,0.72,0.7198,0.7205,0.7205,0.7205,0.7201,0.7203,0.7201,0.7199,0.7207,0.7198,0.7203,0.7208,0.7209,0.721,0.7232,0.7225,0.7233,0.7247,0.7255,0.7258,0.7261,0.727,0.7274,0.7234,0.7234,0.7234,0,0.721,0.7216,0.721,0.7216,0.7218,0.7208,0.7216,0.7217,0.7217,0.7219,0.7212,0.7221,0.7219,0.7231,0.7237,0.7237,0.7241,0.7232,0.7258,0.7261,0.7263,0.7272,0.7276,0.7235,0.7235,0.7235,0.7235,0,0.7229,0.7234,0.724,0.7242,0.7245,0.7252,0.7248,0.7251,0.7247,0.7245,0.7254,0.7253,0.7256,0.7259,0.7253,0.7271,0.7267,0.726,0.7248,0.7268,0.7276,0.728,0.7237,0.7236,0.7236,0.7236,0,0,0.7252,0.7253,0.7255,0.7257,0.7258,0.7262,0.727,0.7274,0.7278,0.7279,0.7287,0.7293,0.7287,0.7289,0.7284,0.7292,0.7312,0.7284,0.7284,0.729,0.7333,0.7339,0.7343,0.7308,0.7308,0.7309,0.7334,0,0.727,0.7283,0.7279,0.7293,0.7299,0.7292,0.7299,0.7301,0.73,0.7305,0.7304,0.7309,0.73,0.7302,0.7309,0.7308,0.732,0.7306,0.7315,0.7316,0.7316,0.7347,0.7352,0.7376,0.7337,0.7337,0.7338,0,0.7291,0.7295,0.731,0.7312,0.7314,0.7321,0.7326,0.7331,0.7334,0.7333,0.7336,0.7331,0.7341,0.733,0.7344,0.7334,0.7338,0.7339,0.734,0.734,0.7328,0.7349,0.7383,0.7387,0.7342,0.7342,0.7342,0,0.7308,0.7317,0.7328,0.7329,0.7332,0.7337,0.7339,0.7341,0.7345,0.735,0.7353,0.7358,0.7361,0.7367,0.7364,0.7356,0.738,0.7368,0.738,0.738,0.7385,0.7384,0.742,0.7387,0.7387,0.7386,0.7386,0,0.7328,0.7337,0.7336,0.7342,0.7354,0.735,0.7362,0.7362,0.7365,0.7373,0.7367,0.7375,0.7371,0.7378,0.7377,0.739,0.7391,0.7391,0.7391,0.7392,0.7392,0.7395,0.7393,0.7387,0.7387,0.7387,0.7387,0,0.7348,0.7347,0.7359,0.7361,0.7362,0.7371,0.7374,0.7381,0.7381,0.739,0.7393,0.7392,0.7402,0.74,0.7409,0.7409,0.7426,0.7423,0.7425,0.7424,0.7437,0.7437,0.7476,0.7482,0.7444,0.7444,0.7444,0,0.7361,0.7368,0.7373,0.7378,0.738,0.7388,0.7393,0.739,0.7396,0.7402,0.7409,0.7417,0.7424,0.7439,0.744,0.7449,0.7447,0.746,0.7447,0.745,0.7448,0.7448,0.745,0.7462,0.7463,0.7463,0.7463,0,0.7384,0.7384,0.7391,0.7399,0.7405,0.7411,0.7416,0.7421,0.7419,0.7426,0.7436,0.7441,0.7453,0.7462,0.7471,0.7473,0.7469,0.7468,0.7471,0.7473,0.7474,0.7475,0.7432,0.7466,0.7466,0.7466,0.7466,0.7466,0.7401,0.7409,0.7414,0.7423,0.7427,0.7433,0.7441,0.7443,0.7451,0.7461,0.7459,0.7471,0.7477,0.7488,0.7492,0.7502,0.7497,0.7501,0.7503,0.7504,0.7506,0.7473,0.7503,0.7503,0.7503,0.7503,0.7503,0,0.7425,0.7429,0.7437,0.7446,0.7454,0.745,0.7457,0.7464,0.7474,0.748,0.7488,0.7501,0.7511,0.7515,0.7525,0.7533,0.7531,0.7535,0.7535,0.7536,0.7509,0.7506,0.7537,0.7537,0.7537,0.7537,0.7537,0.7537,0.7439,0.7452,0.7453,0.747,0.7474,0.7486,0.749,0.7496,0.7502,0.7517,0.7525,0.7528,0.7534,0.7545,0.7555,0.7556,0.7561,0.7566,0.7566,0.7541,0.7538,0.7534,0.7531,0.7567,0.7567,0.7593,0.7593,0.7593]},{"header":{"parameterUnit":"m.s-1","parameterCategory":1,"la1":30.2991,"la2":30.254,"lo1":-89.0895,"lo2":-89.0444,"dy":0.0017,"dx":0.0017,"nx":28,"ny":28,"refTime":"2024-12-17T09:00:00:Z","depth":0,"parameterNumber":3,"parameterNumberName":"V-component_of_WINDS"},"data":[0,0,0,0,0,0,0,0,0,0,0,0,0,0,0,0,0,0,0,0,0,0,0,0,0,0,0,0,0,0,0,0,0,0,0,0,0,0,0,0,0,0,0,0,0,0,0,0,0,0,0,0,0,0,0,0,0,0,-5.3743,-5.3744,0,-5.3837,-5.3838,-5.3839,-5.3835,-5.3833,-5.3832,-5.3831,-5.3921,-5.3925,-5.3928,0,0,0,0,0,0,0,0,0,0,0,0,0,-5.3557,-5.3561,-5.3743,-5.3744,-5.3746,-5.3837,-5.3838,-5.3839,-5.3835,-5.3833,-5.3832,-5.383,-5.392,-5.3924,-5.3929,0,0,0,0,0,0,0,0,0,0,0,0,0,-5.3643,-5.3562,-5.3743,-5.3754,-5.3756,-5.3837,-5.3838,-5.384,-5.3835,-5.3833,-5.3831,-5.3829,-5.3919,-5.3924,-5.3929,-5.4003,0,0,-5.3946,-5.3948,0,0,0,0,0,0,0,0,-5.3638,-5.365,-5.3752,-5.3754,-5.3756,-5.3822,-5.3806,-5.3894,-5.3836,-5.3805,-5.3831,-5.3828,-5.3889,-5.3897,-5.3919,-5.4007,-5.4011,-5.3946,-5.395,-5.3952,-5.3954,0,0,0,0,0,0,0,-5.3632,-5.3646,-5.378,-5.3753,-5.3756,-5.3754,-5.3764,-5.3822,-5.3857,-5.3808,-5.3808,-5.3819,-5.389,-5.3914,-5.3921,-5.4012,-5.3946,-5.3951,-5.3954,-5.3957,-5.4167,-5.4169,0,0,0,0,0,0,-5.3624,-5.3641,-5.3777,-5.3783,-5.3691,-5.3759,-5.377,-5.3803,-5.3856,-5.3863,-5.3821,-5.3818,-5.3905,-5.3915,-5.3924,-5.4015,-5.3952,-5.3957,-5.396,-5.4165,-5.4168,-5.417,0,0,0,0,0,0,-5.362,-5.3637,-5.3773,-5.3712,-5.3729,-5.3764,-5.3801,-5.3806,-5.3829,-5.3866,-5.3872,-5.3838,-5.3904,-5.3917,-5.3984,-5.4018,-5.396,-5.3965,-5.4162,-5.4166,-5.4169,-5.4197,0,0,0,0,0,0,-5.3615,-5.3635,-5.3664,-5.3713,-5.3733,-5.3833,-5.3803,-5.3809,-5.3839,-5.3837,-5.3885,-5.389,-5.3904,-5.3976,-5.399,-5.4025,-5.3969,-5.4159,-5.4164,-5.4168,-5.4193,-5.4201,-5.4208,0,0,0,0,0,-5.3608,-5.3666,-5.3665,-5.3682,-5.377,-5.3835,-5.3846,-5.3862,-5.3842,-5.3871,-5.3895,-5.3889,-5.4013,-5.3983,-5.3998,-5.4035,-5.4157,-5.4162,-5.4167,-5.419,-5.4199,-5.4208,0,0,0,0,0,0,-5.3618,-5.3673,-5.3672,-5.3748,-5.3787,-5.3834,-5.3871,-5.3871,-5.3915,-5.3911,-5.3927,-5.3937,-5.4005,-5.4027,-5.3993,-5.4111,-5.4082,-5.4091,-5.4094,-5.4103,-5.411,-5.4104,-5.3973,0,0,0,0,0,-5.3629,-5.3679,-5.3723,-5.3786,-5.3806,-5.3835,-5.3864,-5.3873,-5.3913,-5.3929,-5.3958,-5.3996,-5.4044,-5.4075,-5.412,-5.4196,-5.4207,-5.423,-5.4237,-5.4243,-5.425,-5.4294,-5.4305,-5.4187,-5.4187,-5.4187,0,0,-5.3652,-5.3688,-5.3718,-5.3789,-5.382,-5.3871,-5.3849,-5.3902,-5.394,-5.3937,-5.4003,-5.4026,-5.407,-5.4143,-5.4176,-5.4163,-5.4285,-5.4249,-5.4254,-5.4258,-5.43,-5.4311,-5.4321,-5.4191,-5.419,-5.419,0,0,-5.372,-5.3752,-5.3809,-5.3842,-5.3891,-5.391,-5.3924,-5.3972,-5.3988,-5.4055,-5.4055,-5.4099,-5.418,-5.4212,-5.4239,-5.4322,-5.4318,-5.4337,-5.4374,-5.4417,-5.4426,-5.4434,-5.4465,-5.4476,-5.4344,-5.4344,-5.4344,0,-5.3741,-5.3819,-5.3837,-5.3893,-5.3924,-5.3927,-5.3984,-5.4015,-5.4075,-5.4096,-5.4081,-5.4186,-5.4215,-5.4296,-5.4317,-5.4338,-5.4354,-5.4331,-5.4424,-5.4432,-5.444,-5.447,-5.4481,-5.4346,-5.4345,-5.4345,-5.4345,0,-5.3844,-5.3898,-5.3938,-5.4,-5.4036,-5.4091,-5.4118,-5.4152,-5.4159,-5.418,-5.4249,-5.4285,-5.4339,-5.4359,-5.4365,-5.4442,-5.4433,-5.442,-5.4392,-5.4453,-5.4481,-5.4493,-5.4349,-5.4348,-5.4347,-5.4347,0,0,-5.3918,-5.3992,-5.4007,-5.4036,-5.4091,-5.4133,-5.4189,-5.4245,-5.4274,-5.4316,-5.4364,-5.4435,-5.4425,-5.4456,-5.4465,-5.4502,-5.4568,-5.4486,-5.4487,-5.4501,-5.4657,-5.4666,-5.4679,-5.4566,-5.4569,-5.457,-5.4654,0,-5.3993,-5.4095,-5.4115,-5.4204,-5.4255,-5.4259,-5.4308,-5.4348,-5.4369,-5.4415,-5.4438,-5.4489,-5.4471,-5.449,-5.4527,-5.4552,-5.46,-5.4546,-5.4611,-5.4613,-5.46,-5.4694,-5.4703,-5.478,-5.4665,-5.4667,-5.4668,0,-5.4093,-5.4141,-5.4236,-5.4288,-5.431,-5.4354,-5.4408,-5.4451,-5.4496,-5.4509,-5.4545,-5.4552,-5.461,-5.458,-5.4661,-5.4625,-5.4652,-5.4669,-5.4672,-5.4678,-5.4644,-5.4703,-5.4805,-5.4817,-5.4685,-5.4684,-5.4683,0,-5.4139,-5.4227,-5.4296,-5.4321,-5.4382,-5.4414,-5.444,-5.4484,-5.4517,-5.4563,-5.4585,-5.4637,-5.4665,-5.4705,-5.4724,-5.47,-5.4805,-5.4776,-5.4817,-5.4817,-5.4839,-5.4837,-5.4946,-5.4856,-5.4855,-5.4855,-5.4855,0,-5.422,-5.4278,-5.4318,-5.4361,-5.4426,-5.4448,-5.4512,-5.4538,-5.4577,-5.4624,-5.463,-5.4674,-5.4697,-5.4744,-5.476,-5.4826,-5.4838,-5.485,-5.4854,-5.485,-5.4849,-5.4868,-5.4863,-5.4858,-5.4858,-5.4857,-5.4857,0,-5.4282,-5.4312,-5.4387,-5.4441,-5.4456,-5.4502,-5.4547,-5.4588,-5.4611,-5.4671,-5.4686,-5.4721,-5.4777,-5.4802,-5.4869,-5.488,-5.4956,-5.4955,-5.4941,-5.4943,-5.4983,-5.4979,-5.5109,-5.5128,-5.5024,-5.5025,-5.5026,0,-5.4332,-5.4378,-5.4437,-5.4471,-5.45,-5.4552,-5.4587,-5.4611,-5.4647,-5.4703,-5.4738,-5.4795,-5.4841,-5.4931,-5.4961,-5.5014,-5.5015,-5.5057,-5.5022,-5.5018,-5.5017,-5.5014,-5.5019,-5.5063,-5.5064,-5.5065,-5.5065,0,-5.4418,-5.4432,-5.4483,-5.454,-5.4582,-5.4628,-5.4672,-5.4698,-5.4729,-5.4769,-5.4828,-5.4865,-5.4936,-5.4993,-5.5048,-5.5074,-5.5075,-5.5076,-5.5089,-5.5086,-5.5076,-5.5083,-5.4959,-5.5073,-5.5072,-5.5072,-5.5071,-5.5071,-5.4477,-5.4518,-5.4568,-5.4625,-5.4662,-5.4704,-5.4746,-5.4776,-5.4827,-5.4889,-5.4899,-5.4962,-5.5008,-5.5082,-5.5111,-5.516,-5.515,-5.5167,-5.5172,-5.5176,-5.5179,-5.5069,-5.517,-5.517,-5.517,-5.5169,-5.5169,0,-5.4564,-5.4597,-5.465,-5.4714,-5.4759,-5.4759,-5.4809,-5.4846,-5.4903,-5.4946,-5.4994,-5.5062,-5.5118,-5.5154,-5.5211,-5.5243,-5.5245,-5.5257,-5.5255,-5.5261,-5.5185,-5.5169,-5.5255,-5.5255,-5.5254,-5.5254,-5.5254,-5.5254,-5.4615,-5.4686,-5.4706,-5.4795,-5.4827,-5.4892,-5.492,-5.4959,-5.4995,-5.5072,-5.512,-5.5144,-5.5185,-5.5245,-5.5296,-5.5305,-5.5325,-5.5338,-5.5347,-5.5275,-5.5266,-5.5258,-5.5243,-5.5342,-5.5342,-5.5419,-5.542,-5.542]}]]